Notices

What's New in latest Release from April 7th, 2021:

- Updated Glossary, including Speed of Maximum Gust, and Total Hourly Precipitation

- Updated national and regional climate services offices contacts and prices information

- Addition of station inventory lists for 1981-2010, 1971-2000, and 1961-1990 Normals.

If you haven't already, please take our survey and provide feedback about our website: https://eccc.sondage-survey.ca/f/LanguageSelection.aspx?s=442ca660-fcf1-47c0-95a9-59707d6fd709

Hourly Data Report for November 28, 2019

PINAWA
MANITOBA
Current Station Operator: ECCC - MSC

50°10'38.020" N
96°03'53.000" W
268.00 m
503B1ER
71448
WEA

Download Data

Hourly Data (November 2019)
Hourly Data Report for November 28, 2019
TIME
LST
Temp Definition
°C
Dew Point Definition
°C
Rel Hum Definition
%
Precip. Amount Definition
mm

Wind Dir Definition
10's deg

Wind Spd Definition
km/h
Visibility Definition
km
Stn Press Definition
kPa
Hmdx Definition


Wind Chill Definition


Weather Definition


00:00 -6.0 LegendMM LegendMM 0.0 2 6   100.17   -9 LegendNANA
01:00 -6.0 LegendMM LegendMM 0.0 4 4   100.21   -8 LegendNANA
02:00 -6.3 LegendMM LegendMM 0.0 32 7   100.26   -10 LegendNANA
03:00 -7.7 LegendMM LegendMM 0.0 34 6   100.31   -11 LegendNANA
04:00 -9.0 LegendMM LegendMM 0.0 2 4   100.29   -11 LegendNANA
05:00 -9.9 LegendMM LegendMM 0.0 2 4   100.31   -12 LegendNANA
06:00 -9.2 LegendMM LegendMM 0.0 6 5   100.28   -12 LegendNANA
07:00 -8.9 LegendMM LegendMM 0.0 8 6   100.28   -12 LegendNANA
08:00 -9.3 LegendMM LegendMM 0.0 10 3   100.37   -11 LegendNANA
09:00 -8.5 LegendMM LegendMM 0.0   0   100.42     LegendNANA
10:00 -6.1 LegendMM LegendMM 0.0 11 6   100.42   -9 LegendNANA
11:00 -5.2 LegendMM LegendMM 0.0 12 5   100.41   -7 LegendNANA
12:00 -4.9 LegendMM LegendMM 0.0 9 7   100.34   -8 LegendNANA
13:00 -4.4 LegendMM LegendMM 0.0 5 10   100.20   -9 LegendNANA
14:00 -3.8 LegendMM LegendMM 0.0 5 9   100.11   -8 LegendNANA
15:00 -4.3 LegendMM LegendMM 0.0 8 8   100.09   -8 LegendNANA
16:00 -4.7 LegendMM LegendMM 0.0 6 9   100.13   -9 LegendNANA
17:00 -5.4 LegendMM LegendMM 0.0 8 7   100.15   -9 LegendNANA
18:00 -6.5 LegendMM LegendMM 0.0 9 4   100.17   -8 LegendNANA
19:00 -7.8 LegendMM LegendMM 0.0 11 4   100.11   -10 LegendNANA
20:00 -8.5 LegendMM LegendMM 0.0 10 4   100.04   -11 LegendNANA
21:00 -9.2 LegendMM LegendMM 0.0 10 3   100.02   -11 LegendNANA
22:00 -8.6 LegendMM LegendMM 0.0 11 4   100.01   -11 LegendNANA
23:00 -7.6 LegendMM LegendMM 0.0 11 8   99.99   -12 LegendNANA

Notes on Data Quality.

Legend

  • E = Estimated
  • M = Missing
  • NA = Not Available*
  • [empty] = Indicates an unobserved value
Date modified: